Flag for Canada Weather past 2 weeks in Rouyn-Noranda, Quebec, Canada

54 °F

Passing clouds.

Feels Like: 51 °F
Forecast: 36 / 50 °F
Wind: 9 mph from Southwest

Location: Rouyn Airport

Current Time: Oct 6, 2015 at 8:29:13 PM

Latest Report: Oct 6, 2015 at 8:00 PM

Visibility: 15 mi

Pressure: 29.94 "Hg

Humidity: 77%

Dew point: 46 °F

Location of Rouyn-NorandaLocation

Historic Weather in Rouyn-Noranda — Graph


Rouyn-Noranda temperature yesterday

Maximum temperature yesterday: 57 °F (at 2:00 PM)
Minimum temperature yesterday: 39 °F (at 11:00 PM)
Average temperature yesterday: 48 °F

Past Weeks' High & Low Weather Summary

High72 °F (Sep 27, 4:00 PM)100% (Sep 22, 5:00 AM)30.78 "Hg (Sep 22, 5:00 AM)
Low23 °F (Oct 3, 5:00 AM)32% (Oct 2, 4:00 PM)29.77 "Hg (Sep 28, 6:00 PM)
Average49 °F76%30.34 "Hg
* Reported Sep 21 7:00 PM — Oct 6 7:00 PM, Rouyn-Noranda, Weather by CustomWeather, © 2015

Note: Actual official high and low records may vary slightly from our data, if they occured in-between our weather recording intervals... More about our weather records


Rouyn-Noranda weather history for previous 24 hours

Time TempWeatherWind HumidityBarometerVisibility
7:00 PM
Tue, Oct 6
54 °FPartly sunny.8 mph77%29.94 "Hg15 mi
6:00 PM55 °FBroken clouds.8 mph72%29.95 "Hg15 mi
5:00 PM57 °FBroken clouds.13 mph67%29.95 "Hg15 mi
4:00 PM55 °FPartly sunny.14 mph67%29.96 "Hg15 mi
3:00 PM57 °FMore clouds than sun.14 mph67%29.98 "Hg15 mi
2:00 PM55 °FMostly cloudy.8 mph67%30.01 "Hg15 mi
1:00 PM55 °FPartly sunny.10 mph63%30.03 "Hg15 mi
12:00 PM50 °FPartly sunny.10 mph76%30.04 "Hg15 mi
11:00 AM48 °FPartly sunny.13 mph82%30.06 "Hg15 mi
10:00 AM45 °FScattered clouds.7 mph93%30.07 "Hg15 mi
9:00 AM37 °FFog.5 mph93%30.08 "Hg6 mi
8:00 AM36 °FFog.3 mph93%30.09 "Hg3 mi
7:00 AM34 °FPassing clouds.2 mph100%30.09 "Hg12 mi
6:00 AM36 °FFog.2 mph93%30.10 "Hg5 mi
5:45 AM36 °FFog.5 mph93%30.10 "Hg15 mi
5:00 AM36 °FPassing clouds.3 mph100%30.10 "Hg15 mi
4:00 AM36 °FFog.2 mph100%30.11 "Hg1 mi
3:00 AM36 °FFog.2 mph87%30.13 "Hg15 mi
2:00 AM36 °FPassing clouds.3 mph93%30.14 "Hg15 mi
1:00 AM37 °FPassing clouds.3 mph100%30.15 "Hg15 mi
12:00 AM39 °FPassing clouds.3 mph93%30.16 "Hg15 mi
11:00 PM
Mon, Oct 5
39 °FClear.6 mph93%30.17 "Hg15 mi
10:00 PM45 °FPassing clouds.3 mph87%30.17 "Hg15 mi
9:00 PM48 °FPassing clouds.7 mph76%30.18 "Hg15 mi
8:00 PM50 °FPassing clouds.9 mph71%30.19 "Hg15 mi
Weather by CustomWeather, © 2015

See weather overviewHow to use our weather pages